This demonstration page uses our WeatherBlox Daily Observations layout. Learn more.

Left ArrowRight Arrow

Hourly Observations for March 21, 2018

Temp ( °F °C ) Dew Point ( °F °C ) Humidity (%) Winds ( mph kmh ) Pressure ( in mb ) Visibility ( mi km ) Precip ( " mm )
12:05 am 00:05 Cloudy 49 9.4 48 8.9 97 97 N 9 15 29.91 1013 7 11 0.00 0.03
12:53 am 00:53 Cloudy with Light Rain 50 10 49 9.4 96 96 N 3 6 29.87 1012 3 5 0.00 0.03
12:58 am 00:58 Cloudy with Rain 50 10 48 8.9 93 93 N 3 6 29.91 1013 3 4 0.01 0.25
1:07 am 01:07 Cloudy with Light Rain 50 10 48 8.9 93 93 N 3 6 29.91 1013 5 8 0.02 0.51
1:22 am 01:22 Cloudy with Light Rain 50 10 49 9.4 96 96 NNE 5 7 29.91 1013 4 6 0.02 0.51
1:38 am 01:38 Cloudy with Light Rain 49 9.4 48 8.9 97 97 N 6 9 29.91 1013 3 4 0.03 0.76
1:50 am 01:50 Cloudy with Light Rain 48 9 48 9 100 100 N 6 9 29.91 1013 3 5 0.04 1.02
1:53 am 01:53 Cloudy with Light Rain 49 9.4 48 8.9 97 97 N 7 11 29.86 1011 3 4 0.04 1.02
2:04 am 02:04 Cloudy with Light Rain 49 9.4 49 9.4 100 100 N 3 6 29.91 1013 3 5 0.02 0.51
2:11 am 02:11 Cloudy with Light Rain 49 9.4 48 8.9 97 97 N 7 11 29.91 1013 3 5 0.02 0.51
2:19 am 02:19 Cloudy with Light Rain 49 9.4 48 8.9 97 97 N 7 11 29.91 1013 4 6 0.03 0.76
2:38 am 02:38 Cloudy with Light Rain 49 9.4 49 9.4 100 100 N 5 7 29.88 1012 5 8 0.04 1.02
2:45 am 02:45 Cloudy with Light Rain 49 9.4 48 8.9 97 97 N 6 9 29.88 1012 4 6 0.04 1.02
2:49 am 02:49 Cloudy with Light Rain 48 9 48 9 100 100 N 6 9 29.88 1012 3 4 0.05 1.27
2:53 am 02:53 Cloudy with Light Rain 49 9.4 48 8.9 97 97 N 6 9 29.85 1011 3 4 0.05 1.27
3:05 am 03:05 Cloudy with Light Rain 49 9.4 49 9.4 100 100 N 6 9 29.88 1012 3 5 0.01 0.25
3:31 am 03:31 Cloudy with Light Rain 49 9.4 49 9.4 100 100 NNW 3 6 29.88 1012 3 5 0.03 0.76
3:39 am 03:39 Cloudy with Light Rain 49 9.4 49 9.4 100 100 NW 3 6 29.88 1012 3 4 0.04 1.02
3:53 am 03:53 Cloudy with Light Rain 50 10 49 9.4 96 96 NNW 3 6 29.85 1011 3 4 0.05 1.27
4:08 am 04:08 Cloudy with Mist and Fog 50 10 49 9.4 96 96 N 5 7 29.85 1011 3 5 0.01 0.25
4:22 am 04:22 Cloudy with Mist and Fog 50 10 49 9.4 96 96 N 6 9 29.85 1011 5 8 0.01 0.25
4:41 am 04:41 Cloudy 50 10 49 9.4 96 96 N 5 7 29.85 1011 7 11 0.01 0.25
4:53 am 04:53 Cloudy with Mist and Fog 50 10 49 9.4 96 96 NNW 3 6 29.84 1011 4 6 0.01 0.25
5:00 am 05:00 Cloudy with Mist and Fog 50 10 49 9.4 96 96 NNW 5 7 29.85 1011 4 6 0.00 0.00
5:13 am 05:13 Cloudy with Mist and Fog 50 10 49 9.4 96 96 N 5 7 29.85 1011 4 6 0.00 0.00
5:43 am 05:43 Cloudy with Mist and Fog 49 9.4 49 9.4 100 100 NNW 3 6 29.85 1011 3 4 0.01 0.25
5:53 am 05:53 Cloudy with Light Rain 49 9.4 49 9.4 100 100 N 5 7 29.83 1010 3 5 0.02 0.51
6:00 am 06:00 Cloudy with Mist and Fog 49 9.4 49 9.4 100 100 N 5 7 29.85 1011 4 6 0.00 0.03
6:32 am 06:32 Cloudy with Mist and Fog 49 9.4 49 9.4 100 100 N 3 6 29.85 1011 3 4 0.01 0.25
6:53 am 06:53 Cloudy with Mist and Fog 49 9.4 49 9.4 100 100 N 3 6 29.83 1010 4 6 0.01 0.25
7:03 am 07:03 Cloudy with Mist and Fog 49 9.4 49 9.4 100 100 N 3 6 29.85 1011 3 4 0.00 0.00
7:11 am 07:11 Cloudy with Mist and Fog 49 9.4 49 9.4 100 100 N 3 6 29.85 1011 2 3 0.00 0.00
7:32 am 07:32 Cloudy with Mist and Fog 50 10 49 9.4 96 96 NNW 3 6 29.85 1011 2 3 0.00 0.00
7:44 am 07:44 Cloudy with Mist and Fog 50 10 49 9.4 96 96 NNW 3 6 29.85 1011 1 2 0.00 0.00
7:50 am 07:50 Cloudy with Mist and Fog 50 10 48 9 94 94 Calm 29.85 1011 2 2 0.00 0.00
7:53 am 07:53 Cloudy with Mist and Fog 50 10 49 9.4 96 96 Calm 29.83 1010 2 2 0.00 0.00
8:45 am 08:45 Cloudy with Light Rain 50 10 49 9.4 96 96 NNW 3 6 29.85 1011 2 3 0.01 0.25
8:53 am 08:53 Cloudy with Mist and Fog 50 10 50 10 100 100 N 3 6 29.83 1010 2 3 0.02 0.51
9:07 am 09:07 Cloudy with Mist and Fog 50 10 50 10 100 100 NW 3 6 29.85 1011 1 2 0.00 0.00
9:19 am 09:19 Cloudy with Light Rain 50 10 50 10 100 100 Calm 29.85 1011 2 3 0.01 0.25
9:29 am 09:29 Cloudy with Light Rain 51 10.6 50 10 96 96 Calm 29.85 1011 3 4 0.02 0.51
9:40 am 09:40 Cloudy with Mist and Fog 51 10.6 50 10 96 96 N 3 6 29.85 1011 3 5 0.02 0.51
9:53 am 09:53 Cloudy with Mist and Fog 51 10.6 50 10 96 96 NNE 3 6 29.83 1010 3 4 0.03 0.76
10:10 am 10:10 Cloudy with Mist and Fog 52 11.1 51 10.6 97 97 N 3 6 29.85 1011 3 5 0.00 0.00
10:22 am 10:22 Cloudy with Mist and Fog 52 11.1 50 10 93 93 NNE 3 6 29.85 1011 4 6 0.00 0.00
10:38 am 10:38 Cloudy with Mist and Fog 52 11.1 50 10 93 93 Calm 29.85 1011 3 4 0.00 0.00
10:53 am 10:53 Cloudy with Mist and Fog 52 11.1 51 10.6 97 97 Calm 29.82 1010 3 5 0.00 0.00
11:53 am 11:53 Cloudy with Light Rain 53 11.7 51 10.6 93 93 Calm 29.82 1010 2 3 0.00 0.03
12:00 pm 12:00 Cloudy with Light Rain 53 11.7 51 10.6 93 93 Calm 29.85 1011 2 3 0.00 0.03
12:23 pm 12:23 Cloudy with Mist and Fog 53 11.7 51 10.6 93 93 Calm 29.85 1011 3 4 0.00 0.03
12:30 pm 12:30 Cloudy with Mist and Fog 53 11.7 51 10.6 93 93 Calm 29.85 1011 3 5 0.00 0.03
12:37 pm 12:37 Cloudy with Mist and Fog 53 11.7 51 10.6 93 93 Calm 29.85 1011 3 4 0.00 0.03
12:53 pm 12:53 Cloudy with Mist and Fog 53 11.7 51 10.6 93 93 Calm 29.81 1010 3 5 0.01 0.25
1:53 pm 13:53 Cloudy with Light Rain 53 11.7 51 10.6 93 93 Calm 29.79 1009 3 5 0.01 0.25
1:55 pm 13:55 Cloudy with Light Rain 53 11.7 51 10.6 93 93 Calm 29.83 1010 1 2 0.00 0.03
2:09 pm 14:09 Cloudy with Mist and Fog 53 11.7 51 10.6 93 93 Calm 29.83 1010 2 3 0.00 0.03
2:17 pm 14:17 Cloudy with Light Rain 53 11.7 51 10.6 93 93 Calm 29.83 1010 1 2 0.01 0.25
2:31 pm 14:31 Cloudy with Light Rain 53 11.7 51 10.6 93 93 Calm 29.80 1009 2 2 0.02 0.51
2:41 pm 14:41 Cloudy with Light Rain 53 11.7 52 11.1 96 96 WNW 3 6 29.80 1009 2 2 0.02 0.51
2:47 pm 14:47 Cloudy with Light Rain 54 12 52 11 94 94 Calm 29.80 1009 2 3 0.03 0.76
2:53 pm 14:53 Cloudy with Light Rain 53 11.7 52 11.1 96 96 Calm 29.77 1008 2 3 0.03 0.76
3:05 pm 15:05 Cloudy with Mist and Fog 53 11.7 52 11.1 96 96 Calm 29.80 1009 1 2 0.00 0.03
3:53 pm 15:53 Cloudy with Light Rain 53 11.7 53 11.7 100 100 Calm 29.75 1007 1 2 0.02 0.51
4:00 pm 16:00 Cloudy with Mist and Fog 54 12.2 53 11.7 97 97 S 7 11 29.74 1007 3 4 0.00 0.03
4:25 pm 16:25 Cloudy with Mist and Fog 54 12.2 53 11.7 97 97 SSW 12 19 29.74 1007 4 6 0.00 0.03
4:34 pm 16:34 Cloudy with Mist and Fog 54 12.2 53 11.7 97 97 SSW 9 15 29.74 1007 4 6 0.00 0.03
4:49 pm 16:49 Cloudy with Rain 54 12 54 12 100 100 SSW 10 17 29.77 1008 3 5 0.03 0.76
4:53 pm 16:53 Cloudy with Light Rain 54 12.2 53 11.7 97 97 SSW 10 17 29.73 1007 3 5 0.04 1.02
5:06 pm 17:06 Cloudy with Light Rain 55 12.8 53 11.7 93 93 SW 10 17 29.74 1007 6 10 0.00 0.03
5:53 pm 17:53 Cloudy 55 12.8 54 12.2 96 96 SW 8 13 29.70 1006 7 11 0.03 0.76
6:03 pm 18:03 Cloudy with Mist and Fog 56 13.3 55 12.8 97 97 SSW 8 13 29.71 1006 6 10 0.00 0.00
6:26 pm 18:26 Cloudy with Mist and Fog 57 13.9 55 12.8 93 93 SSW 6 9 29.68 1005 6 10 0.00 0.00
6:53 pm 18:53 Cloudy 58 14.4 56 13.3 93 93 VRB 6 9 29.67 1005 9 14 0.00 0.00
7:04 pm 19:04 Cloudy 54 12.2 53 11.7 97 97 VRB 3 6 29.68 1005 9 14 0.00 0.00
7:29 pm 19:29 Cloudy with Light Rain 54 12.2 53 11.7 97 97 WSW 6 9 29.68 1005 9 14 0.01 0.25
7:36 pm 19:36 Cloudy with Light Rain 54 12.2 53 11.7 97 97 W 7 11 29.68 1005 10 16 0.01 0.25
7:53 pm 19:53 Cloudy 54 12.2 53 11.7 97 97 VRB 3 6 29.66 1004 10 16 0.01 0.25
8:01 pm 20:01 Cloudy with Light Rain 60 15.6 57 13.9 90 90 S 21 33 29.65 1004 10 16 0.00 0.03
8:53 pm 20:53 Cloudy 61 16.1 57 13.9 87 87 S 26 43 29.64 1004 10 16 0.01 0.25
9:53 pm 21:53 Cloudy 61 16.1 57 13.9 87 87 S 26 43 29.66 1004 10 16 0.00 0.00
10:32 pm 22:32 Cloudy with Light Rain 60 15.6 57 13.9 90 90 S 23 37 29.65 1004 10 16 0.00 0.03
10:45 pm 22:45 Cloudy 60 15.6 57 13.9 90 90 S 25 41 29.65 1004 10 16 0.00 0.03
10:53 pm 22:53 Cloudy 60 15.6 56 13.3 86 86 S 22 35 29.65 1004 10 16 0.00 0.03
11:53 pm 23:53 Cloudy 59 15 56 13.3 90 90 S 20 31 29.63 1004 10 16 0.01 0.25

Powered by AerisWeather